Regional Weather Roundup
Issued by NWS

Home | Current Version | Previous Version | Text Only | Print | Product List | Glossary On
Versions: 1 2 3 4 5 6 7 8 9 10 11 12 13 14 15 16 17 18 19 20 21 22 23 24 25 26 27 28 29 30 31 32 33 34 35 36 37 38 39 40 41 42 43 44 45 46 47 48 49 50
000
ASCA42 TJSJ 010611
RWRPR
PUERTO RICO/U.S. VIRGIN ISLANDS HOURLY WEATHER ROUNDUP
NATIONAL WEATHER SERVICE SAN JUAN PR
200 AM AST SUN FEB 01 2015

PRZ001-004-010700-
PUERTO RICO

CITY           SKY/WX    TMP DP  RH WIND       PRES   REMARKS
SAN JUAN LMM   PTCLDY    75  72  88 E5        30.04F
PONCE          PTCLDY    68  66  94 CALM      30.00S
CEIBA          PTCLDY    79  70  73 NE12      30.06F
$$

PRZ006-007-010700-
U.S. VIRGIN ISLANDS

CITY           SKY/WX    TMP DP  RH WIND       PRES   REMARKS
CHARLOTTE AMA  CLEAR     75  70  83 E14       30.02F
$$

HOURLY WEATHER ROUNDUP FOR THE NEWS MEDIA

CITY           SKY/WX    TMP DP  RH WIND       PRES   REMARKS
MIAMI          MOCLDY    67  50  54 E12       30.21F
ORLANDO        PTCLDY    55  49  80 CALM      30.26F
NEW YORK       CLEAR     22   6  50 W12       30.21F WCI  10
NEWARK         CLEAR     18   6  59 W9        30.22F WCI   7
CHICAGO        LGT SNOW  30  29  96 NE8       30.14F VSB 3/4 WCI  22
HARTFORD       CLEAR     14  -4  44 W13       30.06R WCI   0
BOSTON         CLEAR     14  -6  40 W14G20    30.04S WCI  -1
DALLAS         LGT RAIN  54  52  93 S13       29.87F FOG
PHILADELPHIA   PTCLDY    22  11  62 W6        30.27S WCI  14


USA.gov is the U.S. government's official web portal to all federal, state and local government web resources and services.